• In Hungary
  • List of Countries
  • For 7 days
  • Water Temperature
  • Satellite Maps
  • Weather Map
  • News
  • Weather Widgets
  • user-avatar
    Login

    Hourly Weather Djibouti

    Today, 25 September, Monday

    Time Temperature Precipitation Wind Pressure Humidity
    00:00 +35°C° 0 mm 3 mps 754 mmHg 64%
    01:00 +35°C° 0 mm 3 mps 754 mmHg 65%
    02:00 +35°C° 0 mm 2 mps 754 mmHg 66%
    03:00 +34°C° 0 mm 2 mps 754 mmHg 67%
    04:00 +34°C° 0 mm 2 mps 754 mmHg 68%
    05:00 +34°C° 0 mm 2 mps 754 mmHg 69%
    06:00 +34°C° 0 mm 2 mps 754 mmHg 70%
    07:00 +34°C° 0.2 mm 2 mps 755 mmHg 65%
    08:00 +35°C° 0.2 mm 2 mps 755 mmHg 61%
    09:00 +36°C° 0.2 mm 2 mps 755 mmHg 57%
    10:00 +37°C° 0 mm 2 mps 755 mmHg 52%
    11:00 +38°C° 0 mm 3 mps 755 mmHg 47%
    12:00 +39°C° 0 mm 3 mps 754 mmHg 42%
    13:00 +39°C° 0 mm 3 mps 754 mmHg 42%
    14:00 +40°C° 0 mm 4 mps 753 mmHg 41%
    15:00 +41°C° 0 mm 4 mps 753 mmHg 41%
    16:00 +40°C° 0 mm 4 mps 753 mmHg 45%
    17:00 +38°C° 0 mm 3 mps 753 mmHg 48%
    18:00 +37°C° 0 mm 3 mps 753 mmHg 52%
    19:00 +37°C° 0 mm 3 mps 753 mmHg 55%
    20:00 +36°C° 0 mm 3 mps 753 mmHg 57%
    21:00 +36°C° 0 mm 3 mps 754 mmHg 59%
    22:00 +35°C° 0 mm 3 mps 754 mmHg 62%
    23:00 +35°C° 0 mm 3 mps 754 mmHg 65%

    Tomorrow, 26 September, Tuesday

    Time Temperature Precipitation Wind Pressure Humidity
    00:00 +34°C° 0 mm 3 mps 754 mmHg 68%
    01:00 +34°C° 0 mm 2 mps 754 mmHg 69%
    02:00 +34°C° 0 mm 2 mps 754 mmHg 70%
    03:00 +33°C° 0 mm 1 mps 753 mmHg 70%
    04:00 +32°C° 0 mm 1 mps 754 mmHg 70%
    05:00 +32°C° 0 mm 1 mps 754 mmHg 70%
    06:00 +32°C° 0 mm 1 mps 754 mmHg 70%
    07:00 +33°C° 0 mm 1 mps 755 mmHg 62%
    08:00 +34°C° 0 mm 1 mps 755 mmHg 54%
    09:00 +35°C° 0 mm 1 mps 755 mmHg 47%
    10:00 +37°C° 0 mm 2 mps 755 mmHg 43%
    11:00 +39°C° 0 mm 2 mps 755 mmHg 38%
    12:00 +40°C° 0 mm 3 mps 754 mmHg 34%
    13:00 +40°C° 0 mm 3 mps 754 mmHg 34%
    14:00 +40°C° 0 mm 3 mps 753 mmHg 33%
    15:00 +42°C° 0 mm 4 mps 752 mmHg 33%
    16:00 +40°C° 0 mm 3 mps 752 mmHg 35%
    17:00 +39°C° 0 mm 3 mps 752 mmHg 37%
    18:00 +39°C° 0 mm 3 mps 752 mmHg 39%
    19:00 +38°C° 0 mm 3 mps 753 mmHg 42%
    20:00 +37°C° 0 mm 3 mps 753 mmHg 45%
    21:00 +37°C° 0 mm 3 mps 754 mmHg 49%
    22:00 +36°C° 0 mm 3 mps 754 mmHg 53%
    23:00 +36°C° 0 mm 3 mps 754 mmHg 57%

    Day after tomorrow, 27 September, Wednesday

    Time Temperature Precipitation Wind Pressure Humidity
    00:00 +35°C° 0 mm 2 mps 754 mmHg 61%
    01:00 +35°C° 0 mm 2 mps 754 mmHg 63%
    02:00 +33°C° 0 mm 1 mps 754 mmHg 65%
    03:00 +33°C° 0 mm 1 mps 754 mmHg 67%
    04:00 +33°C° 0 mm 1 mps 754 mmHg 67%
    05:00 +33°C° 0 mm 1 mps 754 mmHg 68%
    06:00 +33°C° 0 mm 1 mps 755 mmHg 68%
    07:00 +34°C° 0 mm 1 mps 755 mmHg 62%
    08:00 +34°C° 0 mm 1 mps 756 mmHg 57%
    09:00 +35°C° 0 mm 1 mps 756 mmHg 51%
    10:00 +38°C° 0 mm 2 mps 756 mmHg 46%
    11:00 +39°C° 0 mm 2 mps 756 mmHg 40%
    12:00 +40°C° 0 mm 2 mps 755 mmHg 35%
    13:00 +42°C° 0 mm 3 mps 754 mmHg 34%
    14:00 +42°C° 0 mm 4 mps 753 mmHg 33%
    15:00 +42°C° 0 mm 4 mps 753 mmHg 32%
    16:00 +41°C° 0 mm 4 mps 753 mmHg 36%
    17:00 +40°C° 0 mm 4 mps 753 mmHg 39%
    18:00 +38°C° 0 mm 4 mps 753 mmHg 43%
    19:00 +38°C° 0 mm 3 mps 754 mmHg 46%
    20:00 +37°C° 0 mm 3 mps 754 mmHg 48%
    21:00 +37°C° 0 mm 2 mps 755 mmHg 51%
    22:00 +36°C° 0 mm 2 mps 755 mmHg 53%
    23:00 +36°C° 0 mm 2 mps 755 mmHg 55%

    28 September, Thursday

    Time Temperature Precipitation Wind Pressure Humidity
    00:00 +36°C° 0 mm 2 mps 755 mmHg 56%
    01:00 +35°C° 0 mm 2 mps 754 mmHg 58%
    02:00 +34°C° 0 mm 1 mps 754 mmHg 60%
    03:00 +34°C° 0 mm 1 mps 754 mmHg 61%
    04:00 +33°C° 0 mm 1 mps 754 mmHg 62%
    05:00 +33°C° 0 mm 1 mps 754 mmHg 62%
    06:00 +33°C° 0 mm 1 mps 755 mmHg 62%
    07:00 +34°C° 0 mm 1 mps 755 mmHg 57%
    08:00 +35°C° 0 mm 1 mps 756 mmHg 51%
    09:00 +36°C° 0 mm 1 mps 756 mmHg 45%
    10:00 +38°C° 0 mm 2 mps 756 mmHg 40%
    11:00 +39°C° 0 mm 2 mps 755 mmHg 36%
    12:00 +40°C° 0 mm 3 mps 754 mmHg 31%
    13:00 +42°C° 0 mm 3 mps 754 mmHg 31%
    14:00 +42°C° 0 mm 4 mps 753 mmHg 30%
    15:00 +42°C° 0 mm 4 mps 752 mmHg 30%
    16:00 +41°C° 0 mm 4 mps 753 mmHg 33%
    17:00 +41°C° 0 mm 4 mps 753 mmHg 36%
    18:00 +39°C° 0 mm 3 mps 753 mmHg 39%
    19:00 +38°C° 0 mm 3 mps 754 mmHg 42%
    20:00 +38°C° 0 mm 3 mps 754 mmHg 44%
    21:00 +37°C° 0 mm 3 mps 755 mmHg 47%
    22:00 +36°C° 0 mm 2 mps 754 mmHg 50%
    23:00 +36°C° 0 mm 2 mps 754 mmHg 53%

    29 September, Friday

    Time Temperature Precipitation Wind Pressure Humidity
    00:00 +35°C° 0 mm 2 mps 754 mmHg 57%
    01:00 +35°C° 0 mm 2 mps 754 mmHg 58%
    02:00 +34°C° 0 mm 1 mps 753 mmHg 60%
    03:00 +33°C° 0 mm 1 mps 753 mmHg 61%
    04:00 +33°C° 0 mm 1 mps 753 mmHg 62%
    05:00 +33°C° 0 mm 1 mps 754 mmHg 63%
    06:00 +33°C° 0 mm 1 mps 754 mmHg 63%
    07:00 +34°C° 0 mm 1 mps 755 mmHg 60%
    08:00 +34°C° 0 mm 1 mps 755 mmHg 56%
    09:00 +35°C° 0 mm 1 mps 755 mmHg 52%
    10:00 +37°C° 0 mm 2 mps 755 mmHg 47%
    11:00 +38°C° 0 mm 2 mps 754 mmHg 42%
    12:00 +39°C° 0 mm 2 mps 753 mmHg 37%
    13:00 +40°C° 0 mm 3 mps 752 mmHg 35%
    14:00 +40°C° 0 mm 3 mps 752 mmHg 33%
    15:00 +42°C° 0 mm 4 mps 751 mmHg 31%
    16:00 +41°C° 0 mm 4 mps 751 mmHg 34%
    17:00 +39°C° 0 mm 3 mps 752 mmHg 38%
    18:00 +39°C° 0 mm 3 mps 752 mmHg 41%
    19:00 +38°C° 0 mm 3 mps 752 mmHg 46%
    20:00 +37°C° 0 mm 3 mps 753 mmHg 50%
    21:00 +37°C° 0 mm 3 mps 753 mmHg 54%
    22:00 +36°C° 0 mm 3 mps 753 mmHg 59%
    23:00 +35°C° 0 mm 3 mps 753 mmHg 63%

    30 September, Saturday

    Time Temperature Precipitation Wind Pressure Humidity
    00:00 +35°C° 0 mm 3 mps 753 mmHg 68%
    01:00 +34°C° 0 mm 2 mps 753 mmHg 69%
    02:00 +34°C° 0 mm 2 mps 753 mmHg 70%
    03:00 +33°C° 0 mm 1 mps 753 mmHg 71%
    04:00 +33°C° 0 mm 1 mps 753 mmHg 72%
    05:00 +33°C° 0 mm 1 mps 754 mmHg 72%
    06:00 +33°C° 0 mm 1 mps 754 mmHg 72%
    07:00 +33°C° 0 mm 1 mps 754 mmHg 67%
    08:00 +34°C° 0 mm 1 mps 755 mmHg 61%
    09:00 +35°C° 0 mm 1 mps 755 mmHg 56%
    10:00 +37°C° 0 mm 2 mps 755 mmHg 51%
    11:00 +38°C° 0 mm 3 mps 754 mmHg 46%
    12:00 +39°C° 0 mm 3 mps 753 mmHg 42%
    13:00 +41°C° 0 mm 4 mps 753 mmHg 42%
    14:00 +41°C° 0 mm 5 mps 752 mmHg 43%
    15:00 +41°C° 0 mm 5 mps 752 mmHg 43%
    16:00 +40°C° 0 mm 5 mps 752 mmHg 49%
    17:00 +38°C° 0 mm 4 mps 752 mmHg 54%
    18:00 +37°C° 0 mm 4 mps 752 mmHg 59%
    19:00 +36°C° 0 mm 3 mps 753 mmHg 59%
    20:00 +36°C° 0 mm 3 mps 753 mmHg 60%
    21:00 +36°C° 0 mm 3 mps 754 mmHg 60%
    22:00 +35°C° 0 mm 3 mps 754 mmHg 63%
    23:00 +35°C° 0 mm 3 mps 754 mmHg 65%
    Show more